period_start,C,m1,H,J0,J1,J2,J3,J4,J5,JA,JB,JC,JD,JJ,JK,JN,#
2016-05-04 00:02:01,0.02,1.71,0.00,20.53,25.30,29.00,14.82,50.36,1016.13,2044.00,2835.00,2715.55,3038.01,600.36,601.13,38.43,0000 0000 0000 0000 000000
2016-05-04 00:07:02,0.04,1.71,0.00,20.57,25.30,29.05,14.78,50.33,1016.13,2044.00,2834.30,2715.03,3037.66,599.88,600.61,38.48,0000 0000 0000 0000 000000
2016-05-04 00:12:04,0.02,1.71,0.00,20.58,25.31,29.06,14.81,50.38,1016.13,2044.00,2833.79,2714.86,3037.01,600.28,600.82,38.53,0000 0000 0000 0000 000000
2016-05-04 00:17:05,0.05,1.71,0.00,20.61,25.32,29.05,14.76,50.33,1016.12,2043.99,2833.03,2714.08,3036.34,600.02,600.56,38.58,0000 0000 0000 0000 000000
2016-05-04 00:22:06,0.02,1.71,0.00,20.63,25.33,29.07,14.77,50.38,1016.13,2043.99,2832.29,2713.95,3035.98,600.13,600.61,38.63,0000 0000 0000 0000 000000
2016-05-04 00:27:07,0.06,1.72,0.00,20.65,25.35,29.10,14.67,50.30,1016.13,2043.98,2831.50,2713.25,3035.28,599.91,600.49,38.68,0000 0000 0000 0000 000000
2016-05-04 00:32:09,0.02,1.72,0.00,20.65,25.36,29.09,14.85,50.33,1016.13,2043.99,2830.80,2712.98,3034.78,600.13,600.74,38.73,0000 0000 0000 0000 000000
2016-05-04 00:37:10,0.05,1.72,0.00,20.68,25.37,29.16,14.75,50.04,1016.13,2043.97,2829.89,2712.29,3034.00,599.90,600.39,38.78,0000 0000 0000 0000 000000
2016-05-04 00:42:11,0.08,1.72,0.00,20.71,25.38,29.19,14.72,50.26,1016.13,2043.97,2828.49,2711.45,3032.95,599.86,600.21,38.83,0000 0000 0000 0000 000000
2016-05-04 00:47:13,0.15,1.73,0.00,20.73,25.40,29.24,14.78,50.46,1016.13,2043.95,2825.88,2709.74,3031.08,600.23,600.58,38.88,0000 0000 0000 0000 000000
2016-05-04 00:52:14,0.17,1.74,0.00,20.73,25.41,29.22,14.75,50.27,1016.13,2043.82,2822.48,2707.45,3028.44,600.14,600.48,38.93,0000 0000 0000 0000 000000
2016-05-04 00:57:15,0.14,1.75,0.00,20.74,25.42,29.21,14.74,50.25,1016.11,2043.39,2818.94,2705.13,3025.84,600.14,600.45,38.98,0000 0000 0000 0000 000000
2016-05-04 01:02:16,0.12,1.76,0.00,20.78,25.43,29.24,14.75,50.20,1016.13,2043.23,2815.97,2703.24,3023.66,600.05,600.37,39.03,0000 0000 0000 0000 000000
2016-05-04 01:07:18,0.04,1.76,0.00,20.81,25.45,29.26,14.74,50.17,1016.13,2043.10,2814.86,2702.29,3022.73,600.07,600.24,39.08,0000 0000 0000 0000 000000
2016-05-04 01:12:19,0.10,1.76,0.00,20.83,25.45,29.34,14.75,50.32,1016.13,2043.04,2813.04,2701.22,3021.26,599.74,600.09,39.13,0000 0000 0000 0000 000000
2016-05-04 01:17:21,0.11,1.77,0.00,20.84,25.47,29.31,14.73,50.23,1016.11,2043.02,2810.82,2699.80,3019.62,599.76,599.88,39.18,0000 0000 0000 0000 000000
2016-05-04 01:22:22,0.18,1.78,0.00,20.86,25.47,29.35,14.74,50.42,1016.12,2043.01,2807.75,2697.83,3017.40,599.78,599.82,39.24,0000 0000 0000 0000 000000
2016-05-04 01:27:23,0.20,1.79,0.00,20.86,25.49,29.37,14.79,50.23,1016.11,2043.01,2804.06,2695.45,3014.72,600.40,600.48,39.29,0000 0000 0000 0000 000000
2016-05-04 01:32:24,0.16,1.80,0.00,20.88,25.50,29.40,14.70,50.18,1016.13,2043.00,2800.70,2693.27,3012.23,600.10,600.10,39.34,0000 0000 0000 0000 000000
2016-05-04 01:37:26,0.17,1.80,0.00,20.90,25.50,29.43,14.66,49.97,1016.13,2043.00,2797.73,2691.36,3010.03,599.98,600.08,39.39,0000 0000 0000 0000 000000
2016-05-04 01:42:27,0.25,1.82,0.00,20.90,25.52,29.43,14.67,50.09,1016.13,2043.00,2793.21,2688.51,3006.96,599.81,599.73,39.44,0000 0000 0000 0000 000000
2016-05-04 01:47:28,0.15,1.83,0.00,20.92,25.52,29.44,14.69,49.97,1016.14,2042.99,2789.91,2686.46,3004.57,599.34,599.35,39.49,0000 0000 0000 0000 000000
2016-05-04 01:52:30,0.11,1.83,0.00,20.93,25.54,29.40,14.73,50.00,1016.13,2042.99,2787.71,2685.13,3002.98,599.81,599.74,39.54,0000 0000 0000 0000 000000
2016-05-04 01:57:31,0.08,1.84,0.00,20.95,25.55,29.45,14.69,49.94,1016.13,2042.98,2785.93,2684.00,3001.65,599.96,599.82,39.59,0000 0000 0000 0000 000000
2016-05-04 02:02:33,0.07,1.84,0.00,20.95,25.56,29.45,14.74,50.01,1016.13,2042.97,2784.69,2683.08,3000.71,600.19,600.14,39.64,0000 0000 0000 0000 000000
2016-05-04 02:07:34,0.14,1.85,0.00,20.96,25.57,29.50,14.76,50.01,1016.13,2042.96,2782.32,2681.62,2998.97,600.06,600.01,39.69,0000 0000 0000 0000 000000
2016-05-04 02:12:36,0.17,1.86,0.00,20.99,25.59,29.48,14.77,50.06,1016.13,2042.97,2779.02,2679.60,2996.60,599.95,599.76,39.74,0000 0000 0000 0000 000000
2016-05-04 02:17:37,0.24,1.87,0.00,21.01,25.60,29.49,14.74,49.96,1016.13,2042.93,2775.13,2677.04,2993.75,599.97,599.81,39.79,0000 0000 0000 0000 000000
2016-05-04 02:22:39,0.25,1.88,0.00,21.04,25.62,29.54,14.66,49.96,1016.11,2042.88,2770.36,2674.03,2990.38,600.08,599.76,39.84,0000 0000 0000 0000 000000
2016-05-04 02:27:40,0.10,1.89,0.00,21.05,25.62,29.53,14.75,50.11,1016.08,2042.70,2767.21,2672.03,2988.03,600.01,599.75,39.89,0000 0000 0000 0000 000000
2016-05-04 02:32:41,0.17,1.89,0.00,21.09,25.65,29.59,14.69,50.00,1016.11,2042.40,2764.54,2670.26,2986.02,600.00,599.79,39.94,0000 0000 0000 0000 000000
2016-05-04 02:37:43,0.23,1.91,0.00,21.11,25.66,29.61,14.70,50.30,1016.07,2042.23,2759.98,2667.38,2982.80,600.26,599.89,39.99,0000 0000 0000 0000 000000
2016-05-04 02:42:43,0.27,1.92,0.00,21.12,25.67,29.60,14.68,50.06,1015.84,2042.06,2754.80,2664.06,2979.10,599.85,599.26,40.04,0000 0000 0000 0000 000000
2016-05-04 02:47:45,0.17,1.93,0.00,21.13,25.69,29.65,14.75,50.21,1015.70,2042.04,2750.97,2661.56,2976.32,600.38,599.66,40.10,0000 0000 0000 0000 000000
2016-05-04 02:52:46,0.12,1.94,0.00,21.16,25.70,29.65,14.76,49.92,1015.69,2042.02,2748.71,2660.02,2974.55,599.95,599.12,40.15,0000 0000 0000 0000 000000
2016-05-04 02:57:48,0.12,1.94,0.00,21.17,25.72,29.69,14.66,49.87,1015.68,2042.00,2746.62,2658.69,2972.87,599.75,599.03,40.20,0000 0000 0000 0000 000000
2016-05-04 03:02:49,0.07,1.95,0.00,21.20,25.74,29.70,14.61,49.93,1015.69,2042.00,2744.93,2657.71,2971.68,600.05,599.30,40.25,0000 0000 0000 0000 000000
2016-05-04 03:07:50,0.08,1.95,0.00,21.23,25.75,29.72,14.74,50.04,1015.66,2042.00,2743.61,2656.77,2970.53,599.91,598.95,40.30,0000 0000 0000 0000 000000
2016-05-04 03:12:52,0.06,1.96,0.00,21.24,25.77,29.74,14.66,49.93,1015.66,2042.00,2742.31,2656.00,2969.49,600.22,599.26,40.35,0000 0000 0000 0000 000000
2016-05-04 03:17:53,0.07,1.96,0.00,21.27,25.80,29.79,14.76,49.86,1015.67,2042.00,2741.02,2655.11,2968.53,600.12,599.04,40.40,0000 0000 0000 0000 000000
2016-05-04 03:22:54,0.06,1.96,0.00,21.29,25.81,29.78,14.75,49.99,1015.65,2041.99,2739.82,2654.22,2967.61,600.10,599.07,40.45,0000 0000 0000 0000 000000
2016-05-04 03:27:56,0.10,1.97,0.00,21.30,25.82,29.81,14.69,49.97,1015.64,2041.97,2738.04,2653.20,2966.25,600.18,599.09,40.50,0000 0000 0000 0000 000000
2016-05-04 03:32:57,0.18,1.97,0.00,21.33,25.85,29.82,14.75,50.08,1015.64,2041.95,2735.15,2651.30,2964.11,600.37,599.26,40.55,0000 0000 0000 0000 000000
2016-05-04 03:37:58,0.23,1.99,0.00,21.37,25.86,29.84,14.73,50.17,1015.64,2041.78,2730.76,2648.50,2960.93,600.05,598.68,40.60,0000 0000 0000 0000 000000
2016-05-04 03:43:00,0.27,2.00,0.00,21.39,25.88,29.91,14.70,50.11,1015.64,2041.50,2725.69,2645.17,2957.20,600.00,598.74,40.65,0000 0000 0000 0000 000000
2016-05-04 03:48:01,0.34,2.02,0.00,21.42,25.90,29.92,14.66,49.92,1015.64,2041.16,2719.32,2640.98,2952.48,599.81,598.47,40.70,0000 0000 0000 0000 000000
2016-05-04 03:53:02,0.29,2.03,0.00,21.42,25.92,29.97,14.66,50.04,1015.63,2041.08,2713.91,2637.35,2948.44,599.85,598.55,40.75,0000 0000 0000 0000 000000
2016-05-04 03:58:04,0.28,2.05,0.00,21.43,25.94,29.99,14.68,50.09,1015.63,2041.03,2708.99,2634.12,2944.79,599.88,598.33,40.80,0000 0000 0000 0000 000000
2016-05-04 04:03:05,0.23,2.06,0.00,21.48,25.95,29.96,14.67,49.89,1015.64,2041.01,2704.85,2631.30,2941.75,600.12,598.70,40.85,0000 0000 0000 0000 000000
2016-05-04 04:08:07,0.25,2.07,0.00,21.50,25.97,30.00,14.73,49.92,1015.64,2041.00,2700.48,2628.29,2938.37,600.07,598.57,40.90,0000 0000 0000 0000 000000
2016-05-04 04:13:08,0.20,2.08,0.00,21.51,26.00,30.07,14.61,50.04,1015.59,2041.00,2696.59,2625.72,2935.38,599.77,598.23,40.95,0000 0000 0000 0000 000000
2016-05-04 04:18:09,0.17,2.09,0.00,21.53,26.01,30.08,14.75,50.02,1015.62,2040.99,2693.49,2623.65,2933.04,599.98,598.46,41.00,0000 0000 0000 0000 000000
2016-05-04 04:23:10,0.17,2.10,0.00,21.54,26.03,30.09,14.61,49.99,1015.58,2040.99,2690.55,2621.93,2930.79,599.38,597.79,41.06,0000 0000 0000 0000 000000
2016-05-04 04:28:12,0.15,2.11,0.00,21.54,26.05,30.12,14.70,50.17,1015.45,2040.98,2687.63,2620.05,2928.56,599.90,598.19,41.11,0000 0000 0000 0000 000000
2016-05-04 04:33:13,0.07,2.11,0.00,21.57,26.07,30.14,14.64,49.96,1015.24,2040.96,2686.21,2619.06,2927.40,600.06,598.01,41.16,0000 0000 0000 0000 000000
2016-05-04 04:38:14,0.08,2.12,0.00,21.58,26.09,30.13,14.76,50.23,1015.18,2040.94,2684.88,2618.18,2926.29,600.07,598.15,41.21,0000 0000 0000 0000 000000
2016-05-04 04:43:16,0.06,2.12,0.00,21.61,26.10,30.20,14.66,50.02,1015.17,2040.82,2683.65,2617.42,2925.22,600.07,598.05,41.26,0000 0000 0000 0000 000000
2016-05-04 04:48:17,0.03,2.12,0.00,21.61,26.12,30.19,14.68,49.97,1015.16,2040.49,2682.34,2616.55,2924.14,600.07,598.12,41.31,0000 0000 0000 0000 000000
2016-05-04 04:53:18,0.04,2.13,0.00,21.82,26.14,30.10,14.68,50.15,1015.18,2040.09,2681.03,2615.71,2922.98,600.40,597.93,41.36,0000 0000 0000 0000 000000
2016-05-04 04:58:19,0.11,2.13,0.00,22.54,26.18,29.97,14.55,50.05,1015.19,2040.06,2679.39,2614.53,2921.57,600.06,596.24,41.41,0000 0000 0000 0000 000000
2016-05-04 05:03:20,0.09,2.14,0.00,22.91,26.23,29.90,14.53,49.77,1015.24,2040.01,2677.64,2613.18,2919.94,599.94,595.35,41.46,0000 0000 0000 0000 000000
2016-05-04 05:08:22,0.08,2.14,0.00,23.09,26.29,29.83,14.45,49.70,1015.21,2040.00,2676.43,2612.21,2918.72,599.89,594.94,41.51,0000 0000 0000 0000 000000
2016-05-04 05:13:23,0.06,2.14,0.00,23.20,26.36,29.90,14.50,49.84,1015.19,2039.88,2675.20,2611.29,2917.55,599.62,594.47,41.56,0000 0000 0000 0000 000000
2016-05-04 05:18:24,0.02,2.15,0.00,23.21,26.43,30.00,14.50,49.73,1015.22,2039.19,2673.81,2610.38,2916.27,600.03,594.82,41.61,0000 0000 0000 0000 000000
2016-05-04 05:23:26,0.08,2.15,0.00,23.23,26.50,30.07,14.44,49.58,1015.16,2039.01,2672.52,2609.39,2914.90,599.83,594.57,41.66,0000 0000 0000 0000 000000
2016-05-04 05:28:27,0.07,2.15,0.00,23.10,26.56,30.04,14.51,49.74,1015.16,2038.94,2671.19,2608.47,2913.67,599.88,594.83,41.71,0000 0000 0000 0000 000000
2016-05-04 05:33:29,0.00,2.15,0.00,23.20,26.63,30.13,14.52,49.67,1015.16,2038.31,2669.92,2607.60,2912.50,600.14,594.89,41.76,0000 0000 0000 0000 000000
2016-05-04 05:38:30,0.06,2.16,0.00,23.13,26.70,30.20,14.43,49.72,1015.20,2038.00,2668.65,2606.72,2911.38,599.92,594.80,41.81,0000 0000 0000 0000 000000
2016-05-04 05:43:31,0.05,2.16,0.00,23.04,26.76,30.24,14.57,49.58,1015.17,2037.98,2667.65,2605.97,2910.32,600.06,595.18,41.86,0000 0000 0000 0000 000000
2016-05-04 05:48:32,0.04,2.16,0.00,23.18,26.83,30.36,14.46,49.74,1015.16,2037.77,2666.57,2605.12,2909.33,600.20,595.03,41.91,0000 0000 0000 0000 000000
2016-05-04 05:53:34,0.01,2.16,0.00,23.18,26.89,30.38,14.57,49.57,1015.16,2037.14,2665.44,2604.29,2908.23,600.56,595.42,41.97,0000 0000 0000 0000 000000
2016-05-04 05:58:35,0.07,2.17,0.00,23.15,26.95,30.50,14.54,49.61,1015.17,2037.00,2664.14,2603.51,2907.12,599.83,594.72,42.02,0000 0000 0000 0000 000000
2016-05-04 06:03:37,0.08,2.17,0.00,23.25,27.01,30.59,14.54,49.67,1015.17,2036.96,2662.85,2602.62,2905.95,599.84,594.40,42.07,0000 0000 0000 0000 000000
2016-05-04 06:08:38,0.02,2.17,0.00,23.27,27.07,30.69,14.47,49.69,1015.18,2036.53,2661.57,2601.76,2904.85,599.82,594.57,42.12,0000 0000 0000 0000 000000
2016-05-04 06:13:39,0.04,2.17,0.00,23.44,27.13,30.75,14.55,49.77,1015.18,2036.04,2660.31,2600.84,2903.69,600.28,594.58,42.17,0000 0000 0000 0000 000000
2016-05-04 06:18:40,0.09,2.18,0.00,23.45,27.19,30.76,14.52,49.74,1015.36,2036.00,2658.90,2599.84,2902.46,600.19,594.59,42.22,0000 0000 0000 0000 000000
2016-05-04 06:23:42,0.07,2.18,0.00,23.49,27.24,30.81,14.45,49.76,1015.49,2035.98,2657.56,2599.01,2901.24,599.75,594.13,42.27,0000 0000 0000 0000 000000
2016-05-04 06:28:43,0.01,2.18,0.00,23.55,27.30,30.86,14.55,49.70,1015.54,2035.58,2656.41,2598.15,2900.21,600.32,594.61,42.32,0000 0000 0000 0000 000000
2016-05-04 06:33:45,0.04,2.19,0.00,23.52,27.35,30.90,14.60,49.61,1015.58,2035.06,2655.18,2597.31,2899.08,600.46,594.87,42.37,0000 0000 0000 0000 000000
2016-05-04 06:38:46,0.06,2.19,0.00,23.55,27.40,30.90,14.59,49.77,1015.41,2035.00,2654.08,2596.58,2898.09,600.17,594.40,42.42,0000 0000 0000 0000 000000
2016-05-04 06:43:47,0.05,2.19,0.00,23.54,27.45,31.01,14.59,49.75,1015.24,2034.99,2653.06,2595.94,2897.17,600.05,594.01,42.47,0000 0000 0000 0000 000000
2016-05-04 06:48:49,0.04,2.19,0.00,23.54,27.49,30.98,14.54,49.63,1015.17,2034.82,2652.09,2595.10,2896.31,600.16,594.28,42.52,0000 0000 0000 0000 000000
2016-05-04 06:53:50,0.00,2.19,0.00,23.56,27.53,31.09,14.44,49.63,1015.22,2034.31,2651.20,2594.55,2895.47,599.65,593.74,42.57,0000 0000 0000 0000 000000
2016-05-04 06:58:51,0.03,2.20,0.00,23.66,27.57,31.02,14.50,49.57,1015.46,2034.02,2650.25,2593.97,2894.67,599.98,594.01,42.62,0000 0000 0000 0000 000000
2016-05-04 07:03:53,0.06,2.20,0.00,23.73,27.61,31.11,14.54,49.65,1015.57,2034.00,2649.39,2593.20,2893.90,600.36,594.34,42.67,0000 0000 0000 0000 000000
2016-05-04 07:08:54,0.05,2.20,0.00,23.75,27.66,31.07,14.59,49.66,1015.62,2033.99,2648.60,2592.76,2893.06,600.29,594.23,42.72,0000 0000 0000 0000 000000
2016-05-04 07:13:56,0.05,2.20,0.00,23.74,27.69,31.07,14.43,49.71,1015.63,2033.90,2647.60,2592.02,2892.16,599.93,593.88,42.77,0000 0000 0000 0000 000000
2016-05-04 07:18:57,0.01,2.21,0.00,23.72,27.73,31.15,14.53,49.80,1015.62,2033.48,2646.57,2591.30,2891.41,600.14,594.13,42.82,0000 0000 0000 0000 000000
2016-05-04 07:23:58,0.01,2.21,0.00,23.77,27.76,31.10,14.54,49.84,1015.64,2033.10,2645.75,2590.92,2890.79,600.05,593.93,42.88,0000 0000 0000 0000 000000
2016-05-04 07:28:59,0.05,2.21,0.00,23.72,27.80,31.10,14.54,49.77,1015.64,2033.02,2644.96,2590.10,2890.02,600.09,594.11,42.93,0000 0000 0000 0000 000000
2016-05-04 07:34:00,0.05,2.21,0.00,23.81,27.83,31.12,14.41,49.73,1015.62,2033.00,2644.10,2589.79,2889.22,599.92,593.74,42.98,0000 0000 0000 0000 000000
2016-05-04 07:39:01,0.05,2.21,0.00,23.91,27.86,31.16,14.45,49.50,1015.64,2033.00,2643.34,2589.05,2888.61,599.67,593.26,43.03,0000 0000 0000 0000 000000
2016-05-04 07:44:03,0.03,2.21,0.00,23.87,27.89,31.16,14.48,49.66,1015.64,2032.99,2642.62,2588.70,2887.99,599.59,593.39,43.08,0000 0000 0000 0000 000000
2016-05-04 07:49:04,0.04,2.22,0.00,23.90,27.92,31.21,14.46,49.74,1015.64,2032.97,2641.94,2588.03,2887.23,599.57,593.20,43.13,0000 0000 0000 0000 000000
2016-05-04 07:54:05,0.03,2.22,0.00,23.95,27.95,31.23,14.49,49.80,1015.64,2032.84,2641.10,2587.73,2886.73,600.04,593.63,43.18,0000 0000 0000 0000 000000
2016-05-04 07:59:06,0.01,2.22,0.00,23.92,27.97,31.23,14.55,50.00,1015.63,2032.49,2640.39,2587.03,2886.03,599.98,593.60,43.23,0000 0000 0000 0000 000000
2016-05-04 08:04:07,0.00,2.22,0.00,23.89,28.00,31.25,14.51,49.66,1015.64,2032.17,2639.89,2586.83,2885.43,599.81,593.43,43.28,0000 0000 0000 0000 000000
2016-05-04 08:09:09,0.03,2.22,0.00,23.86,28.02,31.28,14.50,49.53,1015.64,2032.02,2639.06,2586.07,2884.87,600.04,593.67,43.33,0000 0000 0000 0000 000000
2016-05-04 08:14:10,0.05,2.22,0.00,23.93,28.04,31.28,14.51,49.72,1015.64,2032.00,2638.37,2585.77,2884.07,600.02,593.48,43.38,0000 0000 0000 0000 000000
2016-05-04 08:19:11,0.04,2.23,0.00,24.07,28.07,31.28,14.51,49.67,1015.64,2032.00,2637.85,2585.03,2883.67,599.97,593.35,43.43,0000 0000 0000 0000 000000
2016-05-04 08:24:12,0.04,2.23,0.00,24.01,28.10,31.31,14.47,49.61,1015.64,2031.99,2637.06,2584.71,2883.01,599.69,593.10,43.48,0000 0000 0000 0000 000000
2016-05-04 08:29:14,0.05,2.23,0.00,23.85,28.11,31.35,14.58,49.86,1015.64,2031.98,2636.34,2584.04,2882.24,600.41,594.16,43.53,0000 0000 0000 0000 000000
2016-05-04 08:34:15,0.02,2.23,0.00,23.97,28.13,31.34,14.55,49.80,1015.64,2031.96,2635.80,2583.80,2881.83,600.01,593.45,43.58,0000 0000 0000 0000 000000
2016-05-04 08:39:16,0.04,2.23,0.00,24.07,28.15,31.35,14.49,49.73,1015.66,2031.85,2635.02,2583.04,2881.06,599.67,593.07,43.63,0000 0000 0000 0000 000000
2016-05-04 08:44:18,0.01,2.23,0.00,24.12,28.17,31.34,14.44,49.63,1015.66,2031.52,2634.35,2582.84,2880.69,600.12,593.36,43.68,0000 0000 0000 0000 000000
2016-05-04 08:49:19,0.01,2.24,0.00,24.15,28.19,31.36,14.43,49.61,1015.65,2031.23,2633.87,2582.08,2880.03,600.03,593.20,43.73,0000 0000 0000 0000 000000
2016-05-04 08:54:20,0.02,2.24,0.00,24.19,28.20,31.36,14.31,49.53,1015.70,2031.11,2633.09,2581.95,2879.53,599.81,592.96,43.78,0000 0000 0000 0000 000000
2016-05-04 08:59:22,0.05,2.24,0.00,24.03,28.22,31.35,14.49,49.68,1015.68,2031.04,2632.48,2581.19,2879.01,600.14,593.51,43.84,0000 0000 0000 0000 000000
2016-05-04 09:04:23,0.02,2.24,0.00,24.02,28.22,31.38,14.62,49.84,1015.82,2031.01,2631.94,2581.00,2878.58,599.97,593.51,43.89,0000 0000 0000 0000 000000
2016-05-04 09:09:24,0.05,2.24,0.00,24.12,28.25,31.39,14.50,49.73,1015.99,2031.00,2631.12,2580.37,2878.01,600.35,593.76,43.94,0000 0000 0000 0000 000000
2016-05-04 09:14:26,0.02,2.24,0.00,24.06,28.25,31.40,14.36,49.86,1015.88,2031.00,2630.74,2580.01,2877.59,599.76,593.28,43.99,0000 0000 0000 0000 000000
2016-05-04 09:19:27,0.02,2.25,0.00,23.96,28.27,31.42,14.40,49.63,1015.99,2031.00,2630.03,2579.84,2877.01,599.69,593.41,44.04,0000 0000 0000 0000 000000
2016-05-04 09:24:28,0.05,2.25,0.00,24.00,28.27,31.45,14.48,49.83,1015.91,2030.99,2629.46,2579.12,2876.68,599.81,593.37,44.09,0000 0000 0000 0000 000000
2016-05-04 09:29:30,0.01,2.25,0.00,23.97,28.27,31.43,14.56,49.98,1015.77,2030.98,2628.99,2578.99,2876.02,600.14,593.73,44.14,0000 0000 0000 0000 000000
2016-05-04 09:34:31,0.05,2.25,0.00,24.10,28.29,31.44,14.45,49.68,1015.90,2030.96,2628.24,2578.50,2875.72,599.74,593.15,44.19,0000 0000 0000 0000 000000
2016-05-04 09:39:32,0.02,2.25,0.00,24.15,28.30,31.43,14.56,49.90,1015.93,2030.94,2627.81,2578.01,2875.02,600.30,593.79,44.24,0000 0000 0000 0000 000000
2016-05-04 09:44:33,0.02,2.25,0.00,24.17,28.30,31.40,14.47,49.73,1016.03,2030.88,2627.05,2577.92,2874.79,599.79,593.18,44.29,0000 0000 0000 0000 000000
2016-05-04 09:49:34,0.04,2.26,0.00,24.19,28.30,31.42,14.52,49.62,1016.08,2030.80,2626.69,2577.30,2874.07,600.01,593.28,44.34,0000 0000 0000 0000 000000
2016-05-04 09:54:36,-0.01,2.26,0.00,24.13,28.31,31.43,14.54,49.83,1016.07,2030.55,2626.01,2576.99,2873.80,600.15,593.61,44.39,0000 0000 0000 0000 000000
2016-05-04 09:59:37,0.06,2.26,0.00,24.07,28.31,31.39,14.42,49.78,1016.02,2030.61,2625.22,2576.86,2873.06,599.91,593.51,44.44,0000 0000 0000 0000 000000
2016-05-04 10:04:38,0.01,2.26,0.00,24.20,28.32,31.42,14.52,49.69,1016.04,2030.55,2624.96,2576.14,2872.95,599.93,593.25,44.49,0000 0000 0000 0000 000000
2016-05-04 10:09:40,-0.00,2.26,0.00,24.18,28.32,31.41,14.49,49.68,1016.07,2030.16,2624.16,2575.97,2872.15,600.08,593.45,44.54,0000 0000 0000 0000 000000
2016-05-04 10:14:41,0.05,2.26,0.00,24.06,28.32,31.44,14.48,49.83,1015.99,2030.17,2623.58,2575.46,2871.96,600.08,593.65,44.59,0000 0000 0000 0000 000000
2016-05-04 10:19:42,0.03,2.26,0.00,24.15,28.32,31.43,14.44,49.57,1015.86,2030.28,2623.02,2575.02,2871.37,599.89,593.09,44.64,0000 0000 0000 0000 000000
2016-05-04 10:24:43,0.00,2.26,0.00,24.19,28.32,31.41,14.54,49.81,1015.78,2030.21,2622.80,2574.99,2871.00,600.13,593.22,44.69,0000 0000 0000 0000 000000
2016-05-04 10:29:45,0.05,2.27,0.00,24.22,28.32,31.42,14.45,49.63,1015.94,2030.16,2622.04,2574.59,2870.61,599.95,593.13,44.75,0000 0000 0000 0000 000000
2016-05-04 10:34:46,0.02,2.27,0.00,24.25,28.32,31.44,14.40,49.81,1016.05,2030.11,2621.52,2574.03,2870.02,599.70,592.89,44.80,0000 0000 0000 0000 000000
2016-05-04 10:39:47,0.02,2.27,0.00,24.29,28.32,31.43,14.49,49.72,1015.83,2030.13,2620.99,2573.98,2869.73,599.96,592.81,44.85,0000 0000 0000 0000 000000
2016-05-04 10:44:48,0.05,2.27,0.00,24.24,28.32,31.45,14.54,49.71,1015.71,2030.13,2620.29,2573.59,2869.05,600.58,593.55,44.90,0000 0000 0000 0000 000000
2016-05-04 10:49:50,0.04,2.27,0.00,24.11,28.32,31.45,14.56,49.77,1015.71,2030.32,2619.89,2573.03,2868.91,600.39,593.67,44.95,0000 0000 0000 0000 000000
2016-05-04 10:54:51,0.01,2.28,0.00,24.18,28.32,31.43,14.44,49.57,1015.93,2030.15,2619.08,2572.96,2868.11,599.76,593.08,45.00,0000 0000 0000 0000 000000
2016-05-04 10:59:52,0.04,2.28,0.00,24.22,28.32,31.44,14.44,49.81,1016.02,2030.08,2618.57,2572.31,2867.85,599.76,593.08,45.05,0000 0000 0000 0000 000000
2016-05-04 11:04:53,0.03,2.28,0.00,24.19,28.32,31.44,14.54,49.73,1016.05,2030.10,2617.97,2572.00,2867.10,600.12,593.45,45.10,0000 0000 0000 0000 000000
2016-05-04 11:09:55,0.03,2.28,0.00,24.21,28.32,31.42,14.48,49.63,1016.04,2030.06,2617.14,2571.78,2866.79,600.04,593.31,45.15,0000 0000 0000 0000 000000
2016-05-04 11:14:56,0.05,2.28,0.00,24.20,28.32,31.44,14.55,49.75,1015.91,2030.07,2616.75,2571.12,2866.10,600.10,593.20,45.20,0000 0000 0000 0000 000000
2016-05-04 11:19:57,0.01,2.28,0.00,24.16,28.32,31.45,14.49,49.72,1015.81,2030.10,2616.02,2571.00,2865.96,599.92,593.11,45.25,0000 0000 0000 0000 000000
2016-05-04 11:24:58,0.05,2.29,0.00,23.95,28.32,31.50,14.47,49.77,1016.02,2030.08,2615.26,2570.69,2865.17,599.98,593.79,45.30,0000 0000 0000 0000 000000
2016-05-04 11:30:00,0.03,2.29,0.00,23.72,28.31,31.51,14.55,49.88,1016.02,2030.10,2614.56,2570.06,2864.96,599.99,594.22,45.35,0000 0000 0000 0000 000000
2016-05-04 11:35:01,0.04,2.29,0.00,23.90,28.30,31.47,14.57,49.60,1016.05,2030.12,2613.73,2569.89,2864.15,599.89,593.86,45.40,0000 0000 0000 0000 000000
2016-05-04 11:40:02,0.06,2.29,0.00,24.06,28.30,31.46,14.49,49.68,1016.03,2030.13,2612.97,2569.09,2863.66,600.09,593.64,45.45,0000 0000 0000 0000 000000
2016-05-04 11:45:04,0.03,2.30,0.00,24.14,28.30,31.46,14.41,49.63,1016.03,2030.17,2612.11,2568.97,2863.02,599.74,593.15,45.50,0000 0000 0000 0000 000000
2016-05-04 11:50:05,0.08,2.30,0.00,24.16,28.30,31.44,14.45,49.58,1016.12,2030.21,2611.30,2568.21,2862.29,599.91,593.34,45.55,0000 0000 0000 0000 000000
2016-05-04 11:55:06,0.03,2.30,0.00,24.17,28.30,31.43,14.47,49.69,1016.13,2030.40,2610.71,2567.99,2861.86,599.85,593.20,45.60,0000 0000 0000 0000 000000
2016-05-04 12:00:08,0.05,2.30,0.00,24.20,28.30,31.42,14.49,49.66,1016.13,2030.34,2609.98,2567.41,2861.06,600.06,593.56,45.65,0000 0000 0000 0000 000000
2016-05-04 12:05:09,0.04,2.31,0.00,24.18,28.31,31.43,14.49,49.74,1016.10,2030.35,2609.14,2567.01,2860.56,600.00,593.37,45.71,0000 0000 0000 0000 000000
2016-05-04 12:10:11,0.04,2.31,0.00,24.12,28.31,31.42,14.47,49.81,1016.11,2030.23,2608.26,2566.46,2859.96,600.09,593.47,45.76,0000 0000 0000 0000 000000
2016-05-04 12:15:12,0.07,2.31,0.00,24.14,28.31,31.42,14.43,49.68,1016.10,2030.43,2607.55,2566.00,2859.16,600.07,593.45,45.81,0000 0000 0000 0000 000000
2016-05-04 12:20:14,0.03,2.31,0.00,23.94,28.30,31.45,14.56,49.83,1016.09,2030.22,2606.59,2565.36,2858.49,600.10,593.94,45.86,0000 0000 0000 0000 000000
2016-05-04 12:25:15,0.02,2.31,0.00,23.78,28.30,31.48,14.48,49.83,1016.09,2030.16,2605.88,2565.00,2857.97,599.64,593.69,45.91,0000 0000 0000 0000 000000
2016-05-04 12:30:16,0.09,2.32,0.00,23.95,28.30,31.44,14.49,49.84,1016.07,2030.53,2605.06,2564.75,2857.31,599.91,593.65,45.96,0000 0000 0000 0000 000000
2016-05-04 12:35:17,0.03,2.32,0.00,23.98,28.30,31.45,14.50,49.77,1016.12,2030.54,2604.42,2564.05,2856.89,599.76,593.60,46.01,0000 0000 0000 0000 000000
2016-05-04 12:40:19,0.03,2.32,0.00,23.80,28.30,31.51,14.52,49.97,1016.10,2030.22,2603.47,2563.54,2856.07,600.12,594.24,46.06,0000 0000 0000 0000 000000
2016-05-04 12:45:20,0.05,2.32,0.00,23.86,28.30,31.50,14.55,49.84,1016.07,2030.20,2602.78,2563.01,2855.37,600.22,594.15,46.11,0000 0000 0000 0000 000000
2016-05-04 12:50:21,0.04,2.33,0.00,24.00,28.30,31.46,14.57,49.67,1016.09,2030.37,2602.01,2562.82,2854.96,599.92,593.56,46.16,0000 0000 0000 0000 000000
2016-05-04 12:55:23,0.04,2.33,0.00,23.95,28.30,31.47,14.55,49.76,1016.10,2030.43,2601.18,2562.08,2854.14,600.42,594.16,46.21,0000 0000 0000 0000 000000